Lid_Strength_Index
1 3 3 5 11 12 14 13 12 12 12 11 9 9 9 9 9 11 5 2 1 1 0 -0 -1 -1 -2 -1 -1 -1 -1 -1 -1 -1 -1 -1 -1 -1 -1 -1 -1 -1 -1 -1 -2 -2 -1 -1 -1
3 3 5 9 13 16 14 12 12 11 11 10 10 10 10 10 7 6 4 2 1 1 1 1 -1 -1 -1 -1 -1 -1 -1 -1 -1 -1 -1 -1 -1 -1 -1 -1 -1 -1 -1 -1 -1 -1 -1 -1 -1
4 4 7 11 14 15 14 13 12 11 11 11 11 10 10 9 8 6 4 1 1 2 1 1 -1 -2 -2 -1 -2 -2 -2 -1 -1 -1 -1 -1 -1 -2 -2 -1 -1 -1 -1 -2 -1 -0 0 0 0
6 8 10 12 14 12 12 11 11 11 11 10 11 10 9 8 7 6 5 2 2 2 2 -0 -1 -1 -1 -2 -1 -1 -1 -1 -1 -1 -2 -2 -2 -1 -0 0 -0 -1 0 0 1 1 1 1 1
8 9 13 15 14 13 12 11 11 11 12 11 10 11 10 9 8 6 3 2 3 3 2 1 -1 -2 -1 -1 -1 -1 -1 -2 -2 -2 -1 -1 -0 -0 0 0 0 1 1 1 1 2 2 2 2
10 11 14 15 14 12 11 11 11 12 12 12 11 11 10 9 8 6 4 4 3 3 2 1 -0 -1 -1 -1 -1 -1 -1 -2 -1 -1 -0 0 0 1 1 1 1 1 1 2 2 2 2 2 3
10 12 14 15 13 12 11 11 11 11 12 11 11 11 10 10 8 6 6 6 5 4 4 3 2 0 -1 -1 -1 -2 -2 -1 -0 0 1 1 1 1 2 2 2 2 2 2 3 3 3 3 3
10 12 14 14 14 12 11 11 11 11 10 10 9 11 11 10 8 7 7 7 6 6 5 5 4 3 2 2 -0 -1 -1 -0 1 1 2 2 3 3 3 2 2 2 2 3 4 4 5 5 5
10 14 15 14 14 12 11 12 11 11 11 11 9 10 10 9 9 9 9 8 8 6 6 6 6 5 5 5 3 1 1 1 1 2 3 5 9 8 7 4 4 4 4 4 5 6 7 8 7
11 15 14 12 11 12 11 11 11 10 12 11 10 11 10 10 9 9 10 8 9 8 7 7 7 7 7 5 6 6 6 6 7 8 9 10 11 10 8 6 5 6 6 6 6 8 9 11 13
11 12 11 10 10 10 11 12 10 12 11 11 10 10 10 11 10 9 9 8 8 7 8 7 7 8 8 7 8 9 9 10 10 10 11 12 11 10 11 11 12 13 11 13 13 13 14 14 14
12 10 10 9 9 10 11 10 11 11 8 9 9 10 10 11 10 9 9 9 9 9 8 8 8 9 9 9 9 10 10 11 11 12 11 12 12 13 14 14 14 14 15 15 15 15 14 15 14
11 10 9 9 9 9 10 10 11 11 9 9 9 10 10 10 9 9 9 9 10 9 9 9 9 9 9 10 10 11 11 11 11 12 11 12 13 14 14 14 15 15 15 15 16 15 15 15 15
11 10 10 10 10 10 10 10 11 8 9 9 10 10 10 10 9 10 10 10 11 10 10 9 9 9 10 10 10 10 11 11 12 12 12 12 13 14 14 15 15 16 15 16 16 16 16 16 15
11 12 12 11 10 10 10 12 12 8 10 10 10 10 10 10 10 10 9 9 9 10 10 10 10 10 10 10 11 11 11 11 12 12 12 12 13 14 15 15 15 16 16 16 16 16 16 16 16
14 14 15 13 12 11 11 14 11 10 10 10 10 11 11 10 10 9 8 9 9 10 11 11 9 10 10 10 11 11 11 11 12 13 13 13 13 14 15 15 16 16 16 16 17 17 17 17 17
17 18 17 15 11 12 13 14 11 11 11 11 11 11 11 10 10 10 8 8 9 9 10 11 10 11 11 11 11 11 12 12 12 14 14 14 13 14 15 15 16 16 16 17 16 17 18 18 18
18 19 17 17 14 14 15 14 11 10 12 11 11 11 11 10 9 8 9 9 9 9 10 11 11 11 11 11 12 13 13 13 14 13 14 14 14 14 15 16 16 16 17 17 17 18 18 18 18
17 18 18 15 14 15 15 14 13 11 11 13 12 11 10 9 8 8 9 10 10 10 10 11 11 11 11 12 13 13 13 14 14 14 14 14 14 15 16 16 17 17 17 17 18 18 18 19 19
15 16 16 14 13 16 15 15 13 13 12 11 10 10 10 9 9 9 10 11 10 10 10 10 11 11 11 11 11 12 12 14 13 14 14 14 15 15 16 16 17 17 18 18 18 18 19 18 19
17 17 16 16 15 16 17 16 15 13 12 11 10 10 10 10 9 9 10 12 11 10 10 11 11 11 11 11 12 15 15 17 17 16 15 15 15 16 16 16 17 17 18 18 19 18 19 19 19
16 14 15 15 17 19 17 20 17 15 15 14 12 11 11 11 10 10 9 12 12 11 10 10 11 11 11 11 12 13 13 14 14 14 14 15 15 16 16 16 17 17 18 19 19 18 19 19 20
15 15 15 17 18 19 19 20 17 15 16 14 12 11 11 11 11 10 9 11 12 11 11 11 12 12 11 12 12 12 13 13 15 16 17 16 16 16 16 16 17 18 18 18 18 19 19 19 19
14 16 16 18 18 21 17 18 18 17 15 15 13 12 11 11 11 11 11 13 13 13 13 13 13 13 12 12 12 13 13 15 16 16 16 16 16 16 17 17 17 18 18 18 18 19 19 19 19
15 17 21 22 22 20 18 19 16 15 14 13 13 12 11 12 12 11 13 13 13 14 14 14 14 14 13 13 13 13 13 14 14 15 15 16 16 16 17 17 18 18 18 18 18 19 19 19 19
16 16 20 24 20 18 19 20 15 14 13 13 13 13 12 12 12 12 12 12 13 14 14 14 14 14 14 14 14 14 13 14 14 15 14 15 15 15 16 17 17 18 18 19 19 19 19 19 19
17 18 15 19 26 23 17 17 13 14 14 14 13 13 13 13 13 13 13 13 14 14 14 14 14 14 14 14 14 14 13 13 14 15 15 15 15 16 17 17 17 18 18 19 19 19 19 19 19
15 15 18 19 23 24 19 19 18 15 13 12 13 12 13 13 13 13 13 13 13 14 15 14 14 14 14 14 13 13 13 13 14 16 16 16 16 16 17 17 17 18 18 19 19 20 20 20 20
16 16 16 16 16 18 20 17 12 13 12 13 13 13 13 12 12 12 12 12 13 14 15 15 15 14 14 14 13 13 13 14 14 15 16 16 16 17 17 17 18 18 19 19 19 20 20 20 20
14 14 14 15 17 16 16 16 9 10 9 10 10 9 10 11 11 12 12 12 12 13 14 15 15 14 13 13 14 14 14 14 14 15 16 16 17 17 17 18 18 18 18 19 19 20 20 21 21